Regional Weather Roundup
Issued by NWS Lake Charles, LA

Home | Current Version | Previous Version | Text Only | Print | Product List | Glossary On
Versions: 1 2 3 4 5 6 7 8 9 10 11 12 13 14 15 16 17 18 19 20 21 22 23 24 25 26 27 28 29 30 31 32 33 34 35 36 37 38 39 40 41 42 43 44 45 46 47 48 49 50
000
ASUS44 KLCH 111910
RWRLCH
RWRLCH
REGIONAL WEATHER ROUNDUP
NATIONAL WEATHER SERVICE LAKE CHARLES LA
200 PM CDT FRI JUL 11 2014

Note: "fair" indicates few or no clouds below 12,000 feet with no
significant weather and/or obstructions to visibility.


ACROSS SOUTHEAST TEXAS

CITY           SKY/WX    TMP DP  RH WIND       PRES   REMARKS
BEAUMONT       SUNNY     90  74  59 S8        30.13S
BEAUMONT CITY    N/A     91  72  53 CALM      30.13F
ORANGE         PTCLDY    93  71  48 CALM      30.14F
JASPER         MOSUNNY   91  70  50 SW5       30.16F
$$

ACROSS CENTRAL LOUISIANA

CITY           SKY/WX    TMP DP  RH WIND       PRES   REMARKS
LEESVILLE      SUNNY     92  66  42 SE5       30.14F
FULLERTON        N/A     94  69  44 CALM      30.11F
ALEXANDRIA INT MOSUNNY   92  68  45 E3        30.12F
ESLER FIELD    PTSUNNY   93  69  45 CALM      30.13F
DERIDDER       CLOUDY    90  68  48 S3        30.16F
OAKDALE        CLEAR     91  71  52 CALM      30.14F
OPELOUSAS        N/A     90  72  55 NW5       30.13F
$$

ACROSS SOUTHWEST AND SOUTH CENTRAL LOUISIANA

CITY           SKY/WX    TMP DP  RH WIND       PRES   REMARKS
SULPHUR        CLEAR     92  72  51 SW3       30.14F
LAKE CHARLES   SUNNY     92  71  50 CALM      30.13F
CHENNAULT INT  MOSUNNY   90  72  55 CALM      30.14F
CAMERON PHI    CLEAR     88  75  66 S10       30.15S
DEQUINCY         N/A     91  69  48 CALM      30.13F
JENNINGS         N/A     90  73  57 N6        30.13F
LAFAYETTE      MOSUNNY   92  72  51 N3        30.13F
NEW IBERIA     MOSUNNY   93  73  52 CALM      30.14F HX 102
ABBEVILLE        N/A     90  72  54 CALM      30.13F
PATTERSON      SUNNY     91  73  55 CALM      30.17F HX 100
SALT POINT       N/A     92  77  61 VRB5      30.12F HX 105
$$

SELECTED SITES ACROSS THE REGION

CITY           SKY/WX    TMP DP  RH WIND       PRES   REMARKS
HOUSTON BUSH   MOSUNNY   93  73  52 SE9G16    30.12F HX 102
HOUSTON HOBBY  MOSUNNY   93  68  43 SE9       30.11F
GALVESTON      MOSUNNY   90  76  63 S10       30.14F HX 101
COLLEGE STAT   MOSUNNY   92  68  45 S13G20    30.12F
CONROE         MOSUNNY   91  72  53 SE5       30.14F
HUNTSVILLE     SUNNY     92  67  43 S10       30.14F
LUFKIN         PTSUNNY   94  71  47 VRB3      30.14F HX 101
SHREVEPORT     MOSUNNY   93  68  43 CALM      30.13F
MONROE         SUNNY     93  72  50 N6        30.13F HX 101
NATCHEZ MS     MOSUNNY   90  75  62 W6        30.14F HX 100
BATON ROUGE    MOSUNNY   91  74  57 W8        30.12F HX 100
N.O. INTL ARPT MOSUNNY   92  69  47 N6        30.11F
SLIDELL        MOSUNNY   90  74  59 VRB5      30.11F
$$

MARINE REPORTS

STATION/POSITION TIME  TEMP    WIND        PRES    VSBY  WAVE
                       AIR SEA DIR/SP/G                  HT/PER
                 (UTC) (F)     (DEG/KT/KT) (MB)    (MI)  (FT/S)
BUOY 30 S HIGH I NOT AVBL
SEA RIM ST PARK  1900   87     160/  8/ 11 1020.9F
PORT ARTHUR      1900      87  130/  7/  9 1020.6F
SABINE PASS N    1900   87 86  180/  7/ 11 1020.8F
TEXAS POINT      1900   85 86  160/  8/ 11 1020.9F
CALCASIEU PASS   1900   85 86  210/ 10/ 11 1021.9S
LK CHARLES BEACH 1900   89 87              1021.1F
MARSH ISLAND     1800   86     140/  3/  4   N/A
FRESH WATER LOCK 1900   84 88  160/  4/  5 1020.6F
AMERADA PASS     1900   87 85  290/  5/  7 1020.4F
$$



USA.gov is the U.S. government's official web portal to all federal, state and local government web resources and services.